This demonstration page uses our WeatherBlox Daily Observations layout. Learn more.

Left ArrowRight Arrow

41.86663, -103.66717

Hourly Observations for June 29, 2018

Temp ( °F °C ) Dew Point ( °F °C ) Humidity (%) Winds ( mph kmh ) Pressure ( in mb ) Visibility ( mi km ) Precip ( " mm )
12:53 am 00:53 Clear 87 30.6 43 6.1 21 21 S 14 22 29.44 997 10 16 N/A
1:53 am 01:53 Clear 81 27.2 47 8.3 30 30 S 10 17 29.43 997 10 16 N/A
2:53 am 02:53 Clear 77 25 48 8.9 36 36 N N/A 29.44 997 10 16 N/A
3:53 am 03:53 Clear 70 21.1 53 11.7 55 55 NNW 7 11 29.46 998 10 16 N/A
4:53 am 04:53 Clear 69 20.6 58 14.4 68 68 NW 12 19 29.51 999 10 16 N/A
5:53 am 05:53 Sunny 67 19.4 61 16.1 81 81 NW 23 37 29.57 1002 10 16 N/A
6:53 am 06:53 Sunny 68 20 61 16.1 78 78 NW 16 26 29.63 1003 10 16 N/A
7:46 am 07:46 Mostly Cloudy 69 20.6 61 16.1 76 76 WNW 13 20 29.62 1003 10 16 N/A
7:53 am 07:53 Partly Cloudy 70 21.1 61 16.1 73 73 WNW 15 24 29.66 1004 10 16 N/A
8:30 am 08:30 Mostly Cloudy 72 22 61 16 69 69 NW 16 26 29.62 1003 10 16 N/A
8:46 am 08:46 Partly Cloudy 72 22 61 16 69 69 NW 15 24 29.62 1003 10 16 N/A
8:53 am 08:53 Mostly Sunny 72 22.2 62 16.7 71 71 WNW 13 20 29.66 1005 10 16 N/A
9:53 am 09:53 Sunny 76 24.4 63 17.2 64 64 NNW 9 15 29.67 1005 10 16 N/A
10:53 am 10:53 Sunny 78 25.6 64 17.8 62 62 W 12 19 29.66 1005 10 16 N/A
11:53 am 11:53 Sunny 80 26.7 63 17.2 56 56 WNW 8 13 29.66 1004 10 16 N/A
12:53 pm 12:53 Sunny 83 28.3 64 17.8 53 53 WNW 9 15 29.64 1004 10 16 N/A
1:53 pm 13:53 Sunny 85 29.4 64 17.8 50 50 NW 7 11 29.63 1003 10 16 N/A
2:53 pm 14:53 Sunny 88 31.1 59 15 38 38 W 7 11 29.61 1003 10 16 N/A
3:53 pm 15:53 Sunny 90 32.2 56 13.3 32 32 N N/A 29.61 1003 10 16 N/A
4:53 pm 16:53 Sunny 90 32.2 52 11.1 27 27 W 3 6 29.60 1002 10 16 N/A
5:53 pm 17:53 Mostly Sunny 86 30 58 14.4 39 39 S 6 9 29.60 1003 10 16 N/A
6:38 pm 18:38 Mostly Cloudy with Nearby Thunderstorms 84 29 50 10 31 31 W 16 26 29.47 998 10 16 N/A
6:53 pm 18:53 Cloudy with Thunderstorms 79 26.1 50 10 36 36 SSW 13 20 29.65 1004 10 16 N/A
7:24 pm 19:24 Mostly Cloudy with Nearby Thunderstorms 72 22 61 16 69 69 SW 12 19 29.59 1002 10 16 N/A
7:36 pm 19:36 Mostly Cloudy with Light Rain 72 22 61 16 69 69 W 3 6 29.59 1002 7 11 N/A
7:53 pm 19:53 Mostly Cloudy with Light Rain 71 21.7 62 16.7 73 73 SE 12 19 29.67 1005 10 16 0.02 0.51
8:26 pm 20:26 Cloudy with Nearby Thunderstorms 70 21.1 58 14.4 66 66 ENE 13 20 29.62 1003 10 16 N/A
8:41 pm 20:41 Partly Cloudy 71 21.7 57 13.9 61 61 NE 16 26 29.62 1003 10 16 N/A
8:53 pm 20:53 Mostly Clear 71 21.7 57 13.9 61 61 NE 12 19 29.68 1005 10 16 N/A
9:12 pm 21:12 Clear with Nearby Thunderstorms 72 22.2 58 14.4 61 61 NNE 7 11 29.68 1005 10 16 N/A
9:27 pm 21:27 Clear 70 21.1 59 15 68 68 NNE 20 31 29.62 1003 10 16 N/A
9:53 pm 21:53 Clear 70 21.1 58 14.4 66 66 N 23 37 29.73 1007 10 16 N/A
10:51 pm 22:51 Mostly Clear with Nearby Thunderstorms 64 18 61 16 88 88 N 18 30 29.74 1007 10 16 N/A
10:53 pm 22:53 Mostly Clear with Nearby Thunderstorms 65 18.3 60 15.6 84 84 N 17 28 29.75 1007 10 16 N/A
11:04 pm 23:04 Partly Cloudy with Thunderstorms 65 18.3 61 16.1 87 87 NNE 16 26 29.77 1008 10 16 N/A
11:53 pm 23:53 Cloudy with Thunderstorms 63 17.2 63 17.2 100 100 N N/A 29.78 1009 6 10 0.15 3.81

Powered by AerisWeather